1485417600.61,3204,8.5,73752.5,-7.43,-42.89,-43.29,0,*6E
1485417601.88,3205,8.56,73756.3,-7.43,-42.83,-43.21,0,*6D
1485417603.14,3206,8.5,73758.0,-7.43,-42.89,-43.21,0,*64
1485417604.39,3207,8.56,73758.8,-7.43,-42.75,-43.21,0,*66
1485417605.65,3208,8.5,73754.8,-7.43,-42.89,-43.29,0,*62
1485417606.89,3209,8.56,73756.3,-7.39,-43.01,-43.41,0,*61
1485417608.16,3210,8.5,73754.8,-7.43,-43.09,-43.41,0,*6C
1485417609.41,3211,8.56,73756.8,-7.43,-42.89,-43.29,0,*6A
1485417610.66,3212,8.56,73756.0,-7.43,-43.29,-43.87,0,*66
1485417611.89,3213,8.5,73754.3,-7.39,-43.15,-43.61,0,*6D
1485417613.11,3214,8.5,73752.0,-7.37,-43.01,-43.41,0,*63
1485417614.35,3215,8.5,73752.0,-7.39,-43.01,-43.35,0,*6F
1485417615.59,3216,8.56,73756.5,-7.39,-43.01,-43.41,0,*6F
1485417616.86,3217,8.56,73752.3,-7.39,-42.95,-43.41,0,*62
1485417618.11,3218,8.5,73752.8,-7.37,-42.83,-43.21,0,*62
1485417619.37,3219,8.56,73756.0,-7.39,-42.83,-43.35,0,*68
1485417620.62,3220,8.5,73758.8,-7.39,-42.69,-43.15,0,*64
1485417621.88,3221,8.5,73752.8,-7.39,-42.83,-43.35,0,*63
1485417623.1,3222,8.5,73758.3,-7.37,-42.57,-43.01,0,*60
1485417624.36,3223,8.5,73754.5,-7.39,-42.83,-43.15,0,*63
1485417625.57,3224,8.5,73752.3,-7.37,-42.75,-43.15,0,*63
1485417626.82,3225,8.5,73752.8,-7.37,-42.83,-43.21,0,*6C
1485417628.04,3226,8.56,73758.5,-7.37,-42.75,-43.21,0,*66
1485417629.3,3227,8.5,73752.5,-7.37,-42.69,-43.21,0,*6A
1485417630.5,3228,8.5,73756.0,-7.37,-43.15,-43.41,0,*69
1485417631.71,3229,8.56,73754.8,-7.37,-42.75,-43.35,0,*6C
1485417632.92,3230,8.5,73758.0,-7.37,-42.75,-43.15,0,*66
1485417634.15,3231,8.56,73758.5,-7.39,-42.75,-43.35,0,*6B
1485417635.38,3232,8.5,73752.0,-7.37,-43.21,-43.61,0,*67
1485417636.61,3233,8.5,73756.3,-7.33,-42.69,-43.15,0,*6C
1485417637.87,3234,8.5,73754.3,-7.35,-42.83,-43.41,0,*68
1485417639.14,3235,8.5,73756.0,-7.35,-42.95,-43.35,0,*6D
1485417640.38,3236,8.56,73758.3,-7.35,-43.35,-43.81,0,*6A
1485417641.64,3237,8.5,73752.0,-7.35,-42.83,-43.35,0,*68
1485417642.89,3238,8.5,73756.0,-7.35,-43.01,-43.41,0,*6F
1485417644.14,3239,8.56,73756.8,-7.33,-43.09,-43.55,0,*65
1485417645.4,3240,8.56,73756.5,-7.35,-43.41,-43.81,0,*68
1485417646.63,3241,8.5,73752.5,-7.35,-43.15,-43.61,0,*66
1485417647.89,3242,8.56,73758.3,-7.35,-42.69,-43.15,0,*6C
1485417649.12,3243,8.56,73752.3,-7.33,-42.51,-43.09,0,*6D
1485417650.35,3244,8.56,73758.3,-7.33,-42.95,-43.49,0,*66
1485417651.62,3245,8.5,73754.5,-7.35,-42.95,-43.35,0,*6A
1485417652.88,3246,8.56,73760.0,-7.35,-42.83,-43.35,0,*6E
1485417654.14,3247,8.5,73754.3,-7.33,-42.95,-43.55,0,*68
1485417655.38,3248,8.56,73756.3,-7.33,-42.95,-43.35,0,*61
1485417656.62,3249,8.56,73758.8,-7.35,-42.75,-43.35,0,*68
1485417657.82,3250,8.5,73756.8,-7.33,-42.75,-43.15,0,*64
1485417659.03,3251,8.56,73756.0,-7.33,-42.75,-43.15,0,*65
1485417660.26,3252,8.56,73760.5,-7.33,-42.51,-43.09,0,*6D
1485417661.49,3253,8.56,73758.8,-7.33,-42.63,-43.09,0,*6D
1485417662.75,3254,8.56,73754.5,-7.33,-42.69,-43.09,0,*60
1485417663.98,3255,8.56,73754.3,-7.33,-42.63,-43.09,0,*6B
1485417665.23,3256,8.5,73752.0,-7.31,-42.75,-43.29,0,*6F
1485417666.48,3257,8.56,73750.5,-7.31,-42.69,-43.15,0,*6C
1485417667.76,3258,8.56,73758.5,-7.31,-43.29,-43.55,0,*62
1485417668.99,3259,8.56,73748.3,-7.33,-42.75,-43.29,0,*62
1485417670.26,3260,8.5,73746.8,-7.35,-42.95,-43.35,0,*6D
1485417671.49,3261,8.56,73752.0,-7.33,-42.95,-43.49,0,*61
1485417672.77,3262,8.56,73752.3,-7.31,-42.95,-43.29,0,*66
1485417674.01,3263,8.56,73750.0,-7.31,-42.89,-43.35,0,*67
1485417675.26,3264,8.56,73754.8,-7.31,-42.89,-43.29,0,*6D
1485417676.51,3265,8.56,73754.8,-7.31,-43.29,-43.75,0,*6E
1485417677.74,3266,8.56,73750.5,-7.31,-43.15,-43.49,0,*6D
1485417678.94,3267,8.56,73754.3,-7.29,-43.01,-43.49,0,*60
1485417680.2,3268,8.56,73748.3,-7.31,-42.95,-43.35,0,*61
1485417681.46,3269,8.56,73754.5,-7.31,-43.15,-43.67,0,*6E
1485417682.71,3270,8.56,73752.0,-7.31,-43.15,-43.67,0,*66
1485417683.99,3271,8.56,73754.8,-7.31,-43.29,-43.67,0,*68
1485417685.21,3272,8.5,73754.3,-7.31,-43.87,-44.27,0,*6C
1485417686.44,3273,8.56,73752.5,-7.33,-43.29,-43.75,0,*6B
1485417687.67,3274,8.56,73752.0,-7.31,-43.35,-43.75,0,*63
1485417688.89,3275,8.56,73754.0,-7.31,-42.89,-43.49,0,*6B
1485417690.15,3276,8.56,73752.8,-7.31,-42.63,-43.09,0,*68
1485417691.4,3277,8.5,73750.0,-7.31,-42.51,-43.09,0,*68
1485417692.6,3278,8.56,73750.5,-7.29,-42.63,-43.15,0,*62
1485417693.82,3279,8.56,73750.8,-7.29,-42.45,-43.01,0,*62
1485417695.11,3280,8.56,73750.3,-7.31,-42.95,-43.55,0,*61
1485417696.31,3281,8.56,73754.8,-7.29,-43.01,-43.49,0,*68
1485417697.56,3282,8.56,73750.5,-7.29,-43.21,-43.67,0,*65
1485417698.82,3283,8.56,73750.0,-7.31,-43.09,-43.49,0,*6B
1485417700.06,3284,8.56,73754.5,-7.29,-42.83,-43.29,0,*60
1485417701.32,3285,8.56,73750.0,-7.31,-42.75,-43.09,0,*63
1485417702.57,3286,8.56,73752.8,-7.29,-42.69,-43.09,0,*64
1485417703.76,3287,8.56,73752.3,-7.29,-43.49,-43.87,0,*60
1485417705.04,3288,8.5,73748.0,-7.31,-43.29,-43.67,0,*6E
1485417706.3,3289,8.5,73744.8,-7.31,-43.29,-43.75,0,*6C
1485417707.52,3290,8.56,73750.8,-7.29,-43.21,-43.61,0,*60
1485417708.74,3291,8.5,73746.8,-7.31,-43.49,-44.07,0,*61
1485417709.99,3292,8.56,73750.3,-7.31,-43.55,-44.07,0,*6F
1485417711.22,3293,8.56,73752.8,-7.31,-43.49,-44.07,0,*63
1485417712.44,3294,8.56,73748.8,-7.31,-43.35,-43.87,0,*60
1485417713.67,3295,8.5,73748.5,-7.31,-43.15,-43.75,0,*6E
1485417714.94,3296,8.5,73744.3,-7.31,-43.55,-44.13,0,*6E
1485417716.19,3297,8.56,73750.8,-7.31,-42.89,-43.29,0,*61
1485417717.48,3298,8.56,73748.3,-7.31,-42.95,-43.29,0,*63
1485417718.73,3299,8.56,73754.0,-7.31,-43.15,-43.67,0,*61
1485417719.95,3300,8.56,73750.5,-7.31,-43.35,-43.75,0,*61
1485417721.24,3301,8.56,73748.8,-7.31,-43.09,-43.55,0,*6D
1485417722.46,3302,8.56,73750.8,-7.31,-43.35,-43.87,0,*6E
1485417723.71,3303,8.56,73754.8,-7.31,-42.89,-43.29,0,*6D
1485417724.96,3304,8.56,73752.5,-7.31,-42.89,-43.29,0,*6A
1485417726.24,3305,8.56,73752.5,-7.31,-43.29,-43.55,0,*6B
1485417727.49,3306,8.56,73750.3,-7.31,-43.35,-43.67,0,*64
1485417728.72,3307,8.56,73754.8,-7.31,-43.15,-43.75,0,*64
1485417729.93,3308,8.56,73752.8,-7.29,-43.21,-43.87,0,*68
1485417731.16,3309,8.56,73754.8,-7.31,-43.35,-43.75,0,*68
1485417732.39,3310,8.56,73754.0,-7.31,-43.49,-43.95,0,*65
1485417733.67,3311,8.56,73752.3,-7.31,-42.69,-43.09,0,*62
1485417734.9,3312,8.56,73754.0,-7.31,-42.63,-43.15,0,*66
1485417736.14,3313,8.56,73748.8,-7.29,-43.29,-43.81,0,*6C
1485417737.37,3314,8.56,73754.5,-7.31,-43.49,-43.95,0,*61
1485417738.6,3315,8.56,73750.0,-7.31,-43.49,-43.87,0,*63
1485417739.85,3316,8.56,73748.5,-7.31,-42.69,-43.15,0,*68
1485417741.08,3317,8.56,73752.8,-7.31,-42.75,-43.35,0,*66
1485417742.31,3318,8.56,73748.8,-7.31,-43.35,-43.75,0,*68
1485417743.54,3319,8.56,73754.5,-7.31,-43.49,-43.95,0,*6C
1485417744.76,3320,8.56,73752.0,-7.31,-43.49,-43.87,0,*65
1485417746.04,3321,8.56,73754.5,-7.31,-43.29,-43.55,0,*6D
1485417747.3,3322,8.5,73754.5,-7.31,-43.29,-43.75,0,*6C
1485417748.57,3323,8.5,73754.3,-7.31,-43.29,-43.55,0,*6F
1485417749.83,3324,8.56,73756.8,-7.31,-43.09,-43.49,0,*67
1485417751.08,3325,8.56,73756.5,-7.31,-42.69,-43.15,0,*68
1485417752.28,3326,8.56,73754.0,-7.29,-42.63,-43.15,0,*68
1485417753.53,3327,8.56,73762.3,-7.29,-42.83,-43.09,0,*6A
1485417754.75,3328,8.56,73754.5,-7.29,-42.45,-43.01,0,*67
1485417755.98,3329,8.56,73752.0,-7.29,-42.25,-42.69,0,*6F
1485417757.2,3330,8.56,73754.8,-7.29,-42.69,-43.01,0,*60
1485417758.42,3331,8.56,73754.3,-7.29,-42.83,-43.41,0,*61
1485417759.62,3332,8.56,73748.5,-7.29,-42.63,-43.01,0,*68
1485417760.87,3333,8.56,73752.3,-7.27,-42.57,-43.01,0,*60
1485417762.12,3334,8.56,73750.0,-7.27,-43.21,-43.61,0,*61
1485417763.35,3335,8.5,73748.0,-7.25,-42.83,-43.35,0,*6A
1485417764.58,3336,8.56,73750.3,-7.29,-42.45,-43.01,0,*68
1485417765.83,3337,8.56,73750.8,-7.27,-42.51,-42.83,0,*69
1485417767.08,3338,8.56,73750.3,-7.27,-42.51,-42.83,0,*66
1485417768.33,3339,8.56,73746.8,-7.27,-42.37,-42.83,0,*67
1485417769.61,3340,8.56,73750.3,-7.27,-42.57,-42.95,0,*68
1485417770.84,3341,8.56,73750.0,-7.27,-42.75,-43.15,0,*60
1485417772.1,3342,8.56,73754.5,-7.25,-42.57,-42.95,0,*68
1485417773.31,3343,8.56,73754.8,-7.25,-43.01,-43.41,0,*63
1485417774.51,3344,8.56,73752.0,-7.25,-43.15,-43.61,0,*63
1485417775.72,3345,8.56,73752.8,-7.25,-43.15,-43.61,0,*62
1485417776.92,3346,8.56,73756.8,-7.25,-42.75,-43.35,0,*67
1485417778.18,3347,8.56,73758.8,-7.25,-42.57,-42.95,0,*6D
1485417779.41,3348,8.56,73758.5,-7.25,-42.37,-42.95,0,*64
1485417780.65,3349,8.56,73752.8,-7.25,-42.95,-43.35,0,*66
1485417781.86,3350,8.56,73752.0,-7.25,-42.63,-43.35,0,*67
1485417783.09,3351,8.56,73748.3,-7.25,-42.37,-42.95,0,*6C
1485417784.34,3352,8.56,73754.0,-7.21,-42.45,-42.89,0,*63
1485417785.59,3353,8.56,73756.0,-7.23,-42.57,-43.09,0,*6A
1485417786.82,3354,8.56,73756.0,-7.21,-42.89,-43.35,0,*63
1485417788.08,3355,8.56,73754.3,-7.23,-42.69,-43.09,0,*61
1485417789.33,3356,8.56,73756.8,-7.21,-42.51,-42.95,0,*6F
1485417790.59,3357,8.56,73752.8,-7.21,-42.31,-42.89,0,*65
1485417791.84,3358,8.56,73756.0,-7.23,-42.57,-43.09,0,*61
1485417793.07,3359,8.56,73754.3,-7.23,-42.31,-42.89,0,*69
1485417794.32,3360,8.56,73752.8,-7.21,-42.31,-42.75,0,*62
1485417795.6,3361,8.56,73752.3,-7.21,-42.57,-42.95,0,*6D
1485417796.88,3362,8.56,73754.0,-7.21,-42.57,-43.09,0,*6A
1485417798.13,3363,8.56,73756.8,-7.21,-42.31,-42.89,0,*62
1485417799.36,3364,8.56,73754.8,-7.15,-42.63,-43.09,0,*6C
1485417800.59,3365,8.56,73758.0,-7.15,-43.01,-43.29,0,*6A
1485417801.82,3366,8.56,73756.8,-7.17,-42.51,-43.01,0,*65
1485417803.02,3367,8.56,73752.5,-7.15,-42.51,-43.01,0,*66
1485417804.3,3368,8.56,73754.8,-7.17,-42.45,-42.83,0,*65
1485417805.53,3369,8.56,73762.0,-7.15,-42.25,-42.69,0,*64
1485417806.78,3370,8.56,73752.8,-7.15,-42.45,-42.83,0,*6E
1485417807.98,3371,8.56,73752.5,-7.15,-42.51,-43.01,0,*61
1485417809.24,3372,8.56,73756.8,-7.17,-43.09,-43.61,0,*6A
1485417810.49,3373,8.56,73754.5,-7.15,-42.69,-43.21,0,*6A
1485417811.74,3374,8.56,73754.5,-7.17,-42.45,-42.89,0,*62
1485417812.99,3375,8.56,73752.5,-7.15,-42.69,-43.29,0,*64
1485417814.24,3376,8.56,73756.3,-7.15,-42.83,-43.29,0,*63
1485417815.45,3377,8.56,73758.8,-7.15,-42.89,-43.41,0,*66
1485417816.69,3378,8.56,73758.3,-7.13,-42.37,-42.83,0,*65
1485417817.95,3379,8.56,73756.0,-7.13,-42.31,-42.75,0,*6B
1485417819.22,3380,8.56,73752.3,-7.13,-42.57,-42.95,0,*63
1485417820.5,3381,8.56,73756.0,-7.13,-42.57,-42.95,0,*62
1485417821.77,3382,8.56,73758.5,-7.13,-42.45,-42.95,0,*62
1485417822.99,3383,8.56,73758.0,-7.13,-42.63,-43.15,0,*6E
1485417824.2,3384,8.56,73754.3,-7.11,-42.37,-42.75,0,*6D
1485417825.43,3385,8.56,73756.0,-7.11,-42.31,-42.75,0,*6A
1485417826.69,3386,8.56,73756.8,-7.13,-42.19,-42.75,0,*61
1485417827.89,3387,8.56,73758.3,-7.11,-42.37,-42.75,0,*6E
1485417829.1,3388,8.56,73754.8,-7.11,-42.37,-42.75,0,*61
1485417830.37,3389,8.56,73752.5,-7.13,-42.45,-42.83,0,*6E
1485417831.62,3390,8.56,73752.8,-7.09,-42.69,-43.15,0,*6D
1485417832.85,3391,8.56,73754.0,-7.07,-42.25,-42.69,0,*60
1485417834.08,3392,8.56,73756.3,-7.09,-42.13,-42.51,0,*63
1485417835.34,3393,8.56,73754.8,-7.09,-42.37,-42.95,0,*6C
1485417836.57,3394,8.56,73756.8,-7.07,-42.51,-42.95,0,*65
1485417837.82,3395,8.56,73752.5,-7.09,-42.37,-42.95,0,*6A
1485417839.05,3396,8.56,73752.8,-7.07,-42.13,-42.69,0,*62
1485417840.32,3397,8.56,73754.0,-7.09,-42.05,-42.57,0,*67
1485417841.55,3398,8.56,73756.0,-7.07,-42.13,-42.69,0,*6C
1485417842.83,3399,8.56,73762.5,-7.05,-42.31,-42.83,0,*6B
1485417844.08,3400,8.56,73758.8,-7.05,-42.25,-42.83,0,*69
1485417845.31,3401,8.56,73752.8,-7.05,-42.51,-43.01,0,*60
1485417846.56,3402,8.56,73752.8,-7.05,-42.69,-43.41,0,*6C
1485417847.79,3403,8.56,73756.8,-7.07,-42.89,-43.29,0,*6F
1485417848.99,3404,8.56,73750.8,-7.07,-42.75,-43.15,0,*64
1485417850.24,3405,8.56,73752.8,-7.05,-42.89,-43.29,0,*6B
1485417851.52,3406,8.56,73752.5,-7.05,-42.83,-43.29,0,*62
1485417852.72,3407,8.56,73754.0,-7.07,-42.51,-42.89,0,*65
1485417853.97,3408,8.56,73748.0,-7.05,-42.25,-42.83,0,*61
1485417855.22,3409,8.56,73748.8,-7.05,-42.25,-42.69,0,*64
1485417856.45,3410,8.56,73752.8,-7.03,-42.25,-42.69,0,*6A
1485417857.68,3411,8.56,73758.0,-7.03,-42.05,-42.63,0,*63
1485417858.91,3412,8.56,73754.3,-7.03,-42.45,-42.89,0,*60
1485417860.16,3413,8.56,73754.0,-7.03,-42.83,-43.21,0,*68
1485417861.38,3414,8.56,73752.3,-7.05,-42.51,-43.01,0,*64
1485417862.61,3415,8.56,73756.3,-7.03,-42.51,-43.09,0,*6B
1485417863.85,3416,8.56,73758.3,-7.03,-42.51,-43.09,0,*68
1485417865.05,3417,8.56,73758.5,-7.03,-42.25,-42.89,0,*63
1485417866.3,3418,8.56,73754.5,-7.03,-42.31,-42.83,0,*63
1485417867.51,3419,8.56,73752.8,-7.03,-42.89,-43.61,0,*6C
1485417868.72,3420,8.56,73754.0,-7.03,-43.01,-43.61,0,*67
1485417869.95,3421,8.56,73760.0,-7.03,-42.51,-43.09,0,*6C
1485417871.16,3422,8.56,73754.5,-6.99,-42.25,-42.75,0,*64
1485417872.39,3423,8.56,73750.5,-7.01,-42.63,-43.35,0,*62
1485417873.65,3424,8.56,73758.8,-7.01,-42.95,-43.35,0,*6C
1485417874.9,3425,8.56,73754.8,-7.01,-42.37,-42.95,0,*6E
1485417876.13,3426,8.56,73754.8,-6.99,-42.37,-42.83,0,*6A
1485417877.38,3427,8.56,73756.0,-6.99,-42.45,-42.83,0,*6E
1485417878.61,3428,8.56,73754.3,-7.01,-42.25,-42.75,0,*6E
1485417879.86,3429,8.56,73756.3,-7.01,-42.25,-42.83,0,*66
1485417881.12,3430,8.56,73758.3,-7.01,-42.19,-42.75,0,*68
1485417882.38,3431,8.56,73756.8,-7.01,-42.37,-42.95,0,*6B
1485417883.58,3432,8.56,73752.0,-6.99,-42.63,-43.15,0,*60
1485417884.78,3433,8.56,73756.5,-6.99,-42.63,-43.41,0,*60
1485417886.01,3434,8.56,73754.8,-6.99,-42.25,-42.83,0,*6A
1485417887.24,3435,8.56,73756.8,-6.99,-42.37,-42.83,0,*68
1485417888.46,3436,8.56,73756.5,-6.95,-42.13,-42.57,0,*68
1485417889.67,3437,8.56,73758.8,-6.95,-42.75,-43.35,0,*6C
1485417890.92,3438,8.56,73760.0,-6.95,-42.57,-43.09,0,*6C
1485417892.15,3439,8.56,73752.3,-6.95,-42.13,-42.69,0,*6A
1485417893.41,3440,8.56,73756.5,-6.93,-42.13,-42.57,0,*6F
1485417894.66,3441,8.56,73762.0,-6.95,-42.19,-42.69,0,*6F
1485417895.9,3442,8.56,73758.3,-6.95,-42.31,-42.75,0,*6B
1485417897.12,3443,8.56,73752.3,-6.95,-42.75,-43.29,0,*62
1485417898.35,3444,8.56,73756.5,-6.95,-42.51,-43.09,0,*61
1485417899.58,3445,8.56,73754.8,-6.95,-42.57,-43.15,0,*6B
1485417900.84,3446,8.56,73758.0,-6.93,-42.37,-42.95,0,*61
1485417902.07,3447,8.56,73752.5,-6.95,-42.69,-43.15,0,*64
1485417903.32,3448,8.56,73762.5,-6.93,-42.75,-43.29,0,*6F
1485417904.55,3449,8.56,73760.8,-6.95,-42.31,-42.89,0,*63
1485417905.81,3450,8.56,73756.0,-6.93,-42.31,-42.75,0,*6E
1485417907.06,3451,8.56,73758.3,-6.93,-42.69,-43.15,0,*65
1485417908.32,3452,8.56,73758.8,-6.91,-42.51,-43.21,0,*68
1485417909.57,3453,8.56,73762.0,-6.93,-42.57,-43.15,0,*6A
1485417910.8,3454,8.56,73756.0,-6.95,-42.19,-42.89,0,*65
1485417912.03,3455,8.56,73756.0,-6.91,-41.99,-42.51,0,*6E
1485417913.29,3456,8.56,73756.8,-6.91,-42.25,-42.69,0,*62
1485417914.55,3457,8.56,73762.3,-6.87,-42.37,-42.83,0,*63
1485417915.81,3458,8.56,73756.3,-6.91,-42.51,-43.09,0,*68
1485417917.09,3459,8.56,73758.8,-6.91,-42.69,-43.29,0,*60
1485417918.35,3460,8.56,73758.0,-6.87,-42.19,-42.75,0,*62
1485417919.62,3461,8.56,73754.8,-6.87,-42.37,-42.95,0,*61
1485417920.87,3462,8.56,73756.0,-6.87,-42.57,-43.01,0,*68
1485417922.12,3463,8.56,73754.8,-6.87,-42.63,-43.21,0,*6C
1485417923.38,3464,8.56,73752.8,-6.87,-42.83,-43.41,0,*63
1485417924.65,3465,8.56,73754.3,-6.87,-42.19,-42.75,0,*67
1485417925.9,3466,8.56,73754.0,-6.87,-41.99,-42.45,0,*6C
1485417927.16,3467,8.56,73756.8,-6.87,-42.05,-42.63,0,*6F
1485417928.44,3468,8.56,73758.3,-6.87,-41.93,-42.45,0,*68
1485417929.66,3469,8.56,73758.0,-6.85,-41.81,-42.37,0,*6D
1485417930.89,3470,8.56,73754.0,-6.85,-41.81,-42.37,0,*65
1485417932.09,3471,8.56,73754.8,-6.81,-42.37,-42.89,0,*6B
1485417933.33,3472,8.56,73758.5,-6.81,-42.37,-43.09,0,*61
1485417934.56,3473,8.56,73758.8,-6.81,-42.13,-42.69,0,*61
1485417935.79,3474,8.56,73762.3,-6.81,-41.93,-42.51,0,*66
1485417937.03,3475,8.56,73758.0,-6.81,-42.19,-42.75,0,*60
1485417938.27,3476,8.56,73758.3,-6.81,-41.87,-42.31,0,*67
1485417939.52,3477,8.56,73752.8,-6.79,-41.93,-42.51,0,*62
1485417940.81,3478,8.56,73758.3,-6.79,-41.81,-42.31,0,*68
1485417942.05,3479,8.56,73760.5,-6.81,-41.87,-42.31,0,*68
1485417943.31,3480,8.56,73754.0,-6.79,-41.87,-42.31,0,*69
1485417944.57,3481,8.56,73756.0,-6.79,-41.93,-42.51,0,*6B
1485417945.78,3482,8.56,73758.3,-6.81,-42.25,-42.89,0,*64
1485417947.04,3483,8.56,73756.0,-6.79,-42.05,-42.63,0,*64
1485417948.29,3484,8.56,73756.3,-6.79,-42.05,-42.63,0,*63
1485417949.52,3485,8.56,73758.8,-6.77,-41.99,-42.57,0,*6D
1485417950.74,3486,8.56,73758.5,-6.77,-41.99,-42.45,0,*6D
1485417952.0,3487,8.56,73758.8,-6.77,-42.83,-43.29,0,*6F
1485417953.22,3488,8.56,73756.8,-6.77,-42.37,-42.83,0,*6E
1485417954.46,3489,8.56,73758.0,-6.77,-42.19,-42.75,0,*6A
1485417955.72,3490,8.56,73756.0,-6.77,-42.19,-42.83,0,*6B
1485417956.95,3491,8.56,73758.5,-6.77,-42.57,-43.15,0,*6E
1485417958.22,3492,8.56,73756.8,-6.75,-42.05,-42.57,0,*6F
1485417959.48,3493,8.56,73756.8,-6.75,-41.87,-42.45,0,*64
1485417960.73,3494,8.56,73758.5,-6.75,-41.99,-42.57,0,*6F
1485417961.99,3495,8.56,73758.5,-6.75,-42.05,-42.63,0,*6F
1485417963.24,3496,8.56,73758.8,-6.75,-41.99,-42.57,0,*6D
1485417964.48,3497,8.56,73760.5,-6.75,-42.37,-43.01,0,*69
1485417965.7,3498,8.56,73756.0,-6.75,-41.73,-42.37,0,*61
1485417966.93,3499,8.56,73754.0,-6.75,-41.87,-42.37,0,*6B
1485417968.17,3500,8.56,73758.0,-6.69,-41.81,-42.51,0,*61
1485417969.4,3501,8.56,73760.8,-6.73,-41.81,-42.37,0,*6B
1485417970.66,3502,8.56,73760.0,-6.73,-41.81,-42.31,0,*6E
1485417971.89,3503,8.56,73756.3,-6.69,-41.99,-42.69,0,*60
1485417973.12,3504,8.56,73758.5,-6.69,-42.13,-42.57,0,*6B
1485417974.35,3505,8.56,73758.3,-6.69,-41.99,-42.69,0,*66
1485417975.57,3506,8.56,73760.0,-6.69,-41.81,-42.37,0,*67
1485417976.83,3507,8.56,73756.3,-6.67,-41.93,-42.51,0,*6B
1485417978.09,3508,8.56,73758.8,-6.67,-41.93,-42.63,0,*65
1485417979.35,3509,8.56,73760.8,-6.67,-42.05,-42.63,0,*68
1485417980.64,3510,8.56,73756.3,-6.67,-42.31,-43.09,0,*6A
1485417981.89,3511,8.56,73758.0,-6.67,-42.45,-43.01,0,*60
1485417983.15,3512,8.56,73758.5,-6.67,-42.25,-42.83,0,*6E
1485417984.39,3513,8.56,73760.3,-6.65,-41.93,-42.63,0,*6D
1485417985.61,3514,8.56,73760.0,-6.67,-41.73,-42.25,0,*64
1485417986.87,3515,8.56,73756.0,-6.67,-42.45,-43.01,0,*64
1485417988.15,3516,8.56,73760.8,-6.67,-42.45,-43.09,0,*6F
1485417989.41,3517,8.56,73762.3,-6.67,-42.45,-43.01,0,*66
1485417990.64,3518,8.56,73756.5,-6.65,-42.13,-42.69,0,*67
1485417991.89,3519,8.56,73758.0,-6.65,-41.93,-42.45,0,*63
1485417993.14,3520,8.56,73754.8,-6.65,-42.05,-42.83,0,*6F
1485417994.39,3521,8.56,73758.8,-6.65,-41.93,-42.45,0,*68
1485417995.65,3522,8.56,73754.0,-6.63,-41.87,-42.45,0,*68
1485417996.89,3523,8.56,73756.8,-6.63,-41.99,-42.57,0,*65
1485417998.1,3524,8.56,73756.3,-6.61,-41.87,-42.63,0,*68
1485417999.36,3525,8.56,73756.8,-6.63,-42.19,-42.75,0,*68
1485418000.62,3526,8.56,73762.5,-6.63,-41.87,-42.57,0,*6F
1485418001.85,3527,8.56,73760.0,-6.61,-42.25,-42.95,0,*69
1485418003.13,3528,8.56,73762.3,-6.63,-42.57,-43.09,0,*65
1485418004.35,3529,8.56,73762.5,-6.61,-42.57,-43.01,0,*6E
1485418005.58,3530,8.56,73756.0,-6.63,-42.37,-43.01,0,*62
1485418006.84,3531,8.63,73758.0,-6.63,-42.25,-42.95,0,*6C
1485418008.07,3532,8.56,73756.0,-6.63,-42.63,-43.41,0,*65
1485418009.29,3533,8.56,73756.0,-6.61,-42.37,-42.83,0,*68
1485418010.52,3534,8.56,73758.8,-6.61,-41.67,-42.25,0,*65
1485418011.75,3535,8.56,73758.3,-6.61,-41.67,-42.37,0,*67
1485418013.0,3536,8.56,73760.8,-6.61,-42.05,-42.45,0,*66
1485418014.2,3537,8.56,73762.5,-6.61,-41.87,-42.37,0,*6B
1485418015.45,3538,8.56,73760.0,-6.57,-41.81,-42.51,0,*67
1485418016.69,3539,8.56,73760.0,-6.59,-41.61,-42.31,0,*60
1485418017.93,3540,8.56,73756.5,-6.59,-41.93,-42.51,0,*65
1485418019.19,3541,8.56,73762.3,-6.57,-41.73,-42.31,0,*62
1485418020.44,3542,8.63,73760.5,-6.57,-41.55,-42.13,0,*65
1485418021.68,3543,8.63,73762.5,-6.55,-41.67,-42.25,0,*62
1485418022.94,3544,8.56,73762.0,-6.55,-41.67,-42.31,0,*60
1485418024.17,3545,8.56,73760.8,-6.55,-42.05,-42.63,0,*61
1485418025.4,3546,8.63,73762.8,-6.55,-41.55,-42.13,0,*63
1485418026.62,3547,8.56,73758.5,-6.55,-41.29,-41.93,0,*62
1485418027.85,3548,8.56,73758.8,-6.55,-41.55,-42.13,0,*6D
1485418029.1,3549,8.56,73756.8,-6.53,-41.87,-42.45,0,*66
1485418030.33,3550,8.56,73766.8,-6.51,-42.05,-42.75,0,*66
1485418031.58,3551,8.56,73756.8,-6.53,-41.73,-42.45,0,*64
1485418032.83,3552,8.56,73758.5,-6.53,-41.93,-42.51,0,*6C
1485418034.06,3553,8.56,73756.5,-6.51,-41.81,-42.37,0,*6C
1485418035.26,3554,8.63,73760.8,-6.51,-41.99,-42.63,0,*63
1485418036.47,3555,8.56,73756.5,-6.51,-41.87,-42.63,0,*6D
1485418037.7,3556,8.63,73764.0,-6.51,-42.05,-42.75,0,*60
1485418038.93,3557,8.56,73760.3,-6.51,-41.87,-42.57,0,*68
1485418040.15,3558,8.56,73758.0,-6.51,-41.81,-42.37,0,*67
1485418041.41,3559,8.56,73760.5,-6.51,-42.19,-42.83,0,*6B
1485418042.67,3560,8.63,73762.5,-6.47,-41.81,-42.31,0,*6D
1485418043.89,3561,8.56,73758.3,-6.47,-41.93,-42.37,0,*69
1485418045.09,3562,8.56,73758.0,-6.47,-41.73,-42.37,0,*64
1485418046.32,3563,8.63,73760.5,-6.51,-41.87,-42.45,0,*6C
1485418047.54,3564,8.63,73758.0,-6.47,-41.99,-42.57,0,*60
1485418048.77,3565,8.63,73760.0,-6.47,-41.99,-42.69,0,*6C
1485418050.0,3566,8.56,73756.3,-6.47,-42.37,-42.95,0,*6B
1485418051.23,3567,8.63,73758.8,-6.47,-42.13,-42.69,0,*6F
1485418052.46,3568,8.63,73756.0,-6.47,-42.13,-42.83,0,*64
1485418053.67,3569,8.63,73758.0,-6.47,-42.13,-42.75,0,*6C
1485418054.95,3570,8.63,73754.8,-6.45,-42.31,-42.95,0,*68
1485418056.23,3571,8.63,73756.5,-6.45,-41.93,-42.69,0,*61
1485418057.48,3572,8.63,73756.5,-6.45,-41.81,-42.37,0,*6A
1485418058.71,3573,8.63,73760.0,-6.43,-42.19,-42.75,0,*69
1485418059.93,3574,8.63,73762.3,-6.45,-41.73,-42.37,0,*61
1485418061.19,3575,8.63,73762.8,-6.45,-41.61,-42.19,0,*6F
1485418062.42,3576,8.63,73758.5,-6.43,-42.13,-42.69,0,*6B
1485418063.64,3577,8.63,73758.0,-6.45,-42.51,-43.01,0,*65
1485418064.86,3578,8.63,73760.0,-6.43,-41.99,-42.57,0,*69
1485418066.12,3579,8.63,73756.8,-6.45,-41.61,-42.31,0,*69
1485418067.37,3580,8.56,73758.8,-6.43,-42.19,-42.83,0,*6C
1485418068.63,3581,8.63,73758.3,-6.41,-42.05,-42.75,0,*6B
1485418069.85,3582,8.63,73756.8,-6.43,-42.13,-42.57,0,*6D
1485418071.08,3583,8.56,73752.8,-6.43,-42.31,-42.75,0,*6C
1485418072.34,3584,8.56,73752.8,-6.41,-42.05,-42.75,0,*6E
1485418073.59,3585,8.56,73756.8,-6.41,-42.13,-42.69,0,*65
1485418074.87,3586,8.63,73758.0,-6.41,-42.45,-43.09,0,*62
1485418076.12,3587,8.63,73758.5,-6.41,-42.05,-42.63,0,*6A
1485418077.37,3588,8.63,73758.3,-6.41,-41.73,-42.45,0,*63
1485418078.62,3589,8.63,73758.8,-6.41,-42.31,-42.89,0,*67
1485418079.87,3590,8.56,73752.0,-6.39,-42.45,-43.09,0,*6A
1485418081.15,3591,8.56,73756.5,-6.41,-41.93,-42.69,0,*6B
1485418082.42,3592,8.56,73758.0,-6.41,-42.05,-42.69,0,*64
1485418083.67,3593,8.63,73758.0,-6.41,-42.31,-42.89,0,*6C
1485418084.87,3594,8.63,73758.5,-6.39,-42.63,-43.15,0,*67
1485418086.1,3595,8.63,73752.5,-6.39,-42.05,-42.75,0,*61
1485418087.35,3596,8.63,73758.3,-6.41,-41.73,-42.45,0,*6C
1485418088.6,3597,8.56,73754.5,-6.39,-41.93,-42.69,0,*62
1485418089.83,3598,8.63,73758.8,-6.39,-42.05,-42.63,0,*6B
1485418091.06,3599,8.63,73760.8,-6.39,-41.67,-42.25,0,*6F
1485418092.29,3600,8.63,73758.5,-6.39,-41.93,-42.51,0,*64
1485418093.51,3601,8.63,73758.8,-6.37,-41.87,-42.37,0,*6E
1485418094.76,3602,8.63,73758.0,-6.37,-41.99,-42.69,0,*69
1485418096.01,3603,8.63,73762.0,-6.37,-42.19,-42.89,0,*6D
1485418097.26,3604,8.63,73760.5,-6.37,-41.87,-42.45,0,*6E
1485418098.51,3605,8.63,73766.0,-6.37,-42.69,-43.41,0,*69
1485418099.78,3606,8.56,73756.3,-6.37,-42.45,-43.21,0,*62
1485418101.01,3607,8.63,73760.0,-6.37,-41.99,-42.63,0,*66
1485418102.21,3608,8.56,73756.5,-6.35,-41.99,-42.75,0,*6C
1485418103.49,3609,8.63,73762.5,-6.37,-42.19,-42.69,0,*69
1485418104.7,3610,8.63,73762.5,-6.35,-41.99,-42.75,0,*65
1485418105.95,3611,8.63,73760.3,-6.35,-41.81,-42.57,0,*6D
1485418107.22,3612,8.63,73764.5,-6.37,-41.81,-42.45,0,*6F
1485418108.47,3613,8.63,73766.3,-6.35,-41.93,-42.57,0,*6C
1485418109.71,3614,8.63,73762.3,-6.35,-41.93,-42.57,0,*6B
1485418110.92,3615,8.63,73766.0,-6.35,-42.51,-43.15,0,*60
1485418112.12,3616,8.56,73762.8,-6.35,-42.37,-43.01,0,*66
1485418113.35,3617,8.56,73760.5,-6.35,-41.61,-42.31,0,*65
1485418114.58,3618,8.56,73758.8,-6.33,-41.61,-42.37,0,*6A